| time (UTC) | temp F | wind direction | speed knots | gust knots | rain 1hr in | rain 24hr in | rain mn in | humidity % | barometer mb |
| 20260504090126 | 53 | 136 | 2.6 | 0.0 | 0.00 | 0.00 | 0.00 | 85 | 1015.7 |
| 20260504081617 | 52 | 98 | 2.6 | 0.0 | 0.00 | 0.00 | 0.00 | 87 | 1015.5 |
| 20260504081125 | 53 | 127 | 0.9 | 0.0 | 0.00 | 0.00 | 0.00 | 88 | 1015.5 |
| 20260504080628 | 52 | 129 | 0.9 | 0.0 | 0.00 | 0.00 | 0.00 | 88 | 1015.5 |
| 20260504080129 | 52 | 119 | 0.9 | 0.0 | 0.00 | 0.00 | 0.00 | 88 | 1015.4 |
| 20260504013618 | 51 | 303 | 0.9 | 0.0 | 0.00 | 0.00 | 0.00 | 80 | 1014.2 |
| 20260504012611 | 52 | 281 | 0.0 | 0.0 | 0.00 | 0.00 | 0.00 | 81 | 1014.2 |
| 20260504012112 | 52 | 281 | 0.0 | 0.0 | 0.00 | 0.00 | 0.00 | 81 | 1014.3 |
| 20260504011616 | 52 | 281 | 0.9 | 0.0 | 0.00 | 0.00 | 0.00 | 80 | 1014.3 |
| 20260504010631 | 52 | 297 | 0.9 | 0.0 | 0.00 | 0.00 | 0.00 | 80 | 1015.3 |
| 20260504010128 | 52 | 283 | 0.9 | 0.0 | 0.00 | 0.00 | 0.00 | 78 | 1015.4 |
| 20260504005628 | 52 | 283 | 0.9 | 0.0 | 0.00 | 0.00 | 0.00 | 77 | 1015.3 |
| 20260504005129 | 53 | 324 | 0.9 | 0.0 | 0.00 | 0.00 | 0.00 | 79 | 1015.4 |
| 20260504004613 | 53 | 211 | 0.9 | 0.0 | 0.00 | 0.00 | 0.00 | 78 | 1015.4 |
| 20260504004119 | 53 | 229 | 0.9 | 0.0 | 0.00 | 0.00 | 0.00 | 77 | 1015.5 |
| 20260504003622 | 53 | 202 | 1.7 | 0.0 | 0.00 | 0.00 | 0.00 | 77 | 1015.5 |
| 20260504002113 | 53 | 300 | 2.6 | 0.0 | 0.00 | 0.00 | 0.00 | 78 | 1015.5 |
| 20260504001119 | 53 | 298 | 1.7 | 0.0 | 0.00 | 0.00 | 0.00 | 80 | 1015.6 |
| 20260504000621 | 53 | 306 | 0.9 | 0.0 | 0.00 | 0.00 | 0.00 | 81 | 1015.7 |
| 20260504000126 | 53 | 227 | 1.7 | 0.0 | 0.00 | 0.00 | 0.00 | 84 | 1015.7 |
| 20260503235129 | 53 | 316 | 0.9 | 0.0 | 0.00 | 0.00 | 0.15 | 84 | 1015.7 |
| 20260503234612 | 53 | 293 | 0.9 | 0.0 | 0.00 | 0.00 | 0.15 | 84 | 1015.8 |
| 20260503233618 | 53 | 313 | 2.6 | 0.0 | 0.00 | 0.00 | 0.15 | 84 | 1015.7 |
| 20260503233122 | 53 | 315 | 2.6 | 0.0 | 0.00 | 0.00 | 0.15 | 84 | 1015.9 |
| 20260503232630 | 53 | 275 | 2.6 | 0.0 | 0.00 | 0.00 | 0.15 | 86 | 1015.8 |
| 20260503232134 | 53 | 348 | 2.6 | 0.0 | 0.00 | 0.00 | 0.15 | 86 | 1015.8 |
| 20260503231617 | 54 | 325 | 1.7 | 0.0 | 0.00 | 0.00 | 0.15 | 86 | 1015.8 |
| 20260503231116 | 54 | 331 | 0.9 | 0.0 | 0.00 | 0.00 | 0.14 | 87 | 1015.9 |
| 20260503230125 | 54 | 328 | 0.9 | 0.0 | 0.00 | 0.00 | 0.14 | 85 | 1015.9 |
| 20260503225628 | 54 | 334 | 0.0 | 0.0 | 0.00 | 0.00 | 0.14 | 86 | 1015.8 |
| 20260503225128 | 54 | 296 | 0.0 | 0.0 | 0.00 | 0.00 | 0.14 | 86 | 1015.9 |
| 20260503224631 | 54 | 292 | 0.0 | 0.0 | 0.00 | 0.00 | 0.14 | 86 | 1015.8 |
| 20260503224113 | 54 | 157 | 0.9 | 0.0 | 0.00 | 0.00 | 0.14 | 84 | 1015.9 |
| 20260503223617 | 54 | 161 | 1.7 | 0.0 | 0.00 | 0.00 | 0.14 | 84 | 1015.8 |
| 20260503223119 | 54 | 313 | 2.6 | 0.0 | 0.00 | 0.00 | 0.14 | 83 | 1015.7 |
| 20260503222624 | 54 | 322 | 2.6 | 0.0 | 0.00 | 0.00 | 0.14 | 83 | 1015.6 |
| 20260503222127 | 54 | 324 | 1.7 | 0.0 | 0.00 | 0.00 | 0.14 | 83 | 1015.6 |
| 20260503221630 | 54 | 328 | 1.7 | 0.0 | 0.00 | 0.00 | 0.14 | 83 | 1015.7 |
| 20260503221122 | 54 | 345 | 1.7 | 0.0 | 0.00 | 0.00 | 0.14 | 82 | 1015.8 |
| 20260503220623 | 55 | 342 | 0.9 | 0.0 | 0.00 | 0.00 | 0.14 | 82 | 1015.7 |
| 20260503215627 | 55 | 319 | 0.0 | 0.0 | 0.00 | 0.00 | 0.14 | 82 | 1015.7 |
| 20260503215124 | 55 | 319 | 0.0 | 0.0 | 0.00 | 0.00 | 0.14 | 81 | 1015.7 |
| 20260503214627 | 55 | 311 | 0.9 | 0.0 | 0.00 | 0.00 | 0.14 | 80 | 1015.6 |
| 20260503214127 | 55 | 311 | 1.7 | 0.0 | 0.00 | 0.00 | 0.14 | 80 | 1015.6 |
| 20260503213630 | 55 | 329 | 2.6 | 0.0 | 0.00 | 0.00 | 0.14 | 79 | 1015.5 |
| 20260503213113 | 55 | 323 | 1.7 | 0.0 | 0.00 | 0.00 | 0.14 | 78 | 1015.5 |
| 20260503212120 | 56 | 360 | 0.9 | 0.0 | 0.00 | 0.00 | 0.14 | 77 | 1015.5 |
| 20260503211623 | 56 | 355 | 0.9 | 0.0 | 0.00 | 0.00 | 0.14 | 76 | 1015.5 |
| 20260503211125 | 56 | 355 | 0.9 | 0.0 | 0.00 | 0.00 | 0.14 | 72 | 1015.6 |
| 20260503210627 | 56 | 315 | 0.9 | 0.0 | 0.00 | 0.00 | 0.14 | 73 | 1015.5 |
| 20260503210130 | 56 | 330 | 0.9 | 0.0 | 0.00 | 0.00 | 0.14 | 72 | 1015.4 |
| 20260503205620 | 57 | 163 | 0.0 | 0.0 | 0.00 | 0.00 | 0.14 | 73 | 1015.4 |
| 20260503205121 | 57 | 163 | 0.9 | 0.0 | 0.00 | 0.00 | 0.14 | 73 | 1015.4 |
| 20260503204624 | 57 | 235 | 1.7 | 0.0 | 0.00 | 0.00 | 0.14 | 70 | 1015.3 |
| 20260503204122 | 57 | 311 | 2.6 | 0.0 | 0.00 | 0.00 | 0.14 | 69 | 1015.2 |
| 20260503203130 | 57 | 312 | 0.9 | 0.0 | 0.00 | 0.00 | 0.14 | 68 | 1015.2 |
| 20260503202614 | 57 | 292 | 0.0 | 0.0 | 0.00 | 0.00 | 0.14 | 71 | 1015.2 |
| 20260503202116 | 57 | 302 | 0.0 | 0.0 | 0.00 | 0.00 | 0.14 | 71 | 1015.1 |
| 20260503201617 | 57 | 303 | 0.0 | 0.0 | 0.00 | 0.00 | 0.14 | 69 | 1015.0 |
| 20260503201119 | 57 | 302 | 0.0 | 0.0 | 0.00 | 0.00 | 0.14 | 69 | 1015.0 |
| 20260503200623 | 57 | 303 | 0.9 | 0.0 | 0.00 | 0.00 | 0.14 | 69 | 1014.9 |
| 20260503200128 | 57 | 302 | 2.6 | 0.0 | 0.00 | 0.00 | 0.14 | 67 | 1014.9 |
| 20260503195629 | 56 | 328 | 3.5 | 0.0 | 0.00 | 0.00 | 0.14 | 67 | 1014.8 |
| 20260503195113 | 56 | 321 | 3.5 | 0.0 | 0.00 | 0.00 | 0.14 | 67 | 1014.7 |
| 20260503194615 | 56 | 319 | 2.6 | 0.0 | 0.00 | 0.00 | 0.14 | 66 | 1014.7 |
| 20260503194126 | 57 | 317 | 2.6 | 0.0 | 0.00 | 0.00 | 0.14 | 66 | 1014.6 |
| 20260503193628 | 57 | 323 | 2.6 | 0.0 | 0.00 | 0.00 | 0.14 | 65 | 1014.6 |
| 20260503193131 | 57 | 319 | 2.6 | 0.0 | 0.00 | 0.00 | 0.14 | 65 | 1014.7 |
| 20260503192629 | 57 | 311 | 2.6 | 0.0 | 0.00 | 0.00 | 0.14 | 64 | 1014.6 |
| 20260503192130 | 58 | 301 | 1.7 | 0.0 | 0.00 | 0.00 | 0.14 | 64 | 1014.7 |
| 20260503191612 | 58 | 325 | 1.7 | 0.0 | 0.00 | 0.00 | 0.14 | 64 | 1014.6 |
| 20260503190622 | 59 | 324 | 2.6 | 0.0 | 0.00 | 0.00 | 0.14 | 62 | 1014.6 |
| 20260503190128 | 59 | 304 | 1.7 | 0.0 | 0.00 | 0.00 | 0.14 | 62 | 1014.6 |
| 20260503185120 | 60 | 326 | 2.6 | 0.0 | 0.00 | 0.00 | 0.14 | 60 | 1014.4 |
| 20260503184622 | 61 | 321 | 1.7 | 0.0 | 0.00 | 0.00 | 0.14 | 59 | 1014.4 |
| 20260503184124 | 61 | 314 | 0.9 | 0.0 | 0.00 | 0.00 | 0.14 | 58 | 1014.4 |
| 20260503183628 | 61 | 315 | 0.9 | 0.0 | 0.00 | 0.00 | 0.14 | 55 | 1014.4 |
| 20260503183128 | 61 | 323 | 0.9 | 0.0 | 0.00 | 0.00 | 0.14 | 56 | 1014.4 |
| 20260503182120 | 61 | 194 | 2.6 | 0.0 | 0.00 | 0.00 | 0.14 | 53 | 1014.5 |
| 20260503181124 | 62 | 210 | 2.6 | 0.0 | 0.00 | 0.00 | 0.14 | 53 | 1014.5 |
| 20260503180626 | 62 | 180 | 2.6 | 0.0 | 0.00 | 0.00 | 0.14 | 53 | 1014.5 |
| 20260503180128 | 62 | 155 | 2.6 | 0.0 | 0.00 | 0.00 | 0.14 | 52 | 1014.6 |
| 20260503175617 | 63 | 114 | 3.5 | 0.0 | 0.00 | 0.00 | 0.14 | 50 | 1014.6 |
| 20260503174624 | 64 | 171 | 1.7 | 0.0 | 0.00 | 0.00 | 0.14 | 50 | 1014.6 |
| 20260503174126 | 64 | 77 | 1.7 | 0.0 | 0.00 | 0.00 | 0.14 | 50 | 1014.6 |
| 20260503173627 | 64 | 317 | 1.7 | 0.0 | 0.00 | 0.00 | 0.14 | 51 | 1014.6 |
| 20260503173130 | 64 | 111 | 1.7 | 0.0 | 0.00 | 0.00 | 0.14 | 51 | 1014.6 |
| 20260503172613 | 64 | 153 | 1.7 | 0.0 | 0.00 | 0.00 | 0.14 | 49 | 1014.6 |
| 20260503172113 | 64 | 267 | 1.7 | 0.0 | 0.00 | 0.00 | 0.14 | 50 | 1014.7 |
| 20260503171613 | 64 | 236 | 2.6 | 0.0 | 0.00 | 0.00 | 0.14 | 49 | 1014.8 |
| 20260503171124 | 63 | 346 | 3.5 | 0.0 | 0.00 | 0.00 | 0.14 | 49 | 1014.7 |
| 20260503170626 | 63 | 190 | 3.5 | 0.0 | 0.00 | 0.00 | 0.14 | 50 | 1014.8 |
| 20260503170129 | 64 | 126 | 2.6 | 0.0 | 0.00 | 0.00 | 0.14 | 50 | 1014.7 |
| 20260503150615 | 64 | 150 | 2.6 | 0.0 | 0.00 | 0.00 | 0.14 | 55 | 1014.7 |
| 20260503150116 | 63 | 227 | 4.3 | 0.0 | 0.00 | 0.00 | 0.14 | 52 | 1014.8 |
| 20260503140122 | 65 | 127 | 4.3 | 0.0 | 0.00 | 0.00 | 0.14 | 54 | 1015.3 |
| 20260503131127 | 65 | 123 | 3.5 | 0.0 | 0.00 | 0.00 | 0.14 | 57 | 1015.6 |
| 20260503130112 | 64 | 240 | 4.3 | 0.0 | 0.00 | 0.00 | 0.14 | 55 | 1015.5 |
| 20260503110114 | 61 | 96 | 1.7 | 0.0 | 0.00 | 0.00 | 0.14 | 77 | 1016.6 |
| 20260503100127 | 57 | 119 | 1.7 | 0.0 | 0.00 | 0.00 | 0.14 | 86 | 1016.9 |